Simultaneous Nadir Overpasses (SNOs) Predictions

Prediction of SNOs between GOES-17 and NOAA-19 Satellite Orbit:

Table of predicted SNOs for the next 14.0 days since TLE Epoch: 2/19/2022
Index Date Time (GOES-17) GOES-17 Lat,Lon NOAA-19 Lat,Lon Distance(km) Time Diff (sec)
1 02/19/2022 04:48:51 -0.01,-137.19 -0.49,-139.16 225.53 80
2 02/20/2022 04:34:24 -0.01,-137.17 0.18,-136.28 101.37 80
3 02/21/2022 04:22:36 -0.00,-137.16 0.86,-133.41 427.99 80
4 02/22/2022 16:57:39 0.01,-137.14 0.95,-141.16 459.48 80
5 02/23/2022 16:45:52 0.01,-137.11 0.26,-138.28 133.37 80
6 02/24/2022 16:31:23 0.00,-137.09 -0.38,-135.40 192.57 80
7 02/27/2022 04:54:53 -0.02,-137.00 -0.77,-140.33 379.11 80
8 02/28/2022 04:40:25 -0.02,-136.97 -0.14,-137.44 53.72 80
9 03/01/2022 04:31:17 -0.02,-136.94 0.54,-134.57 271.61 80
10 03/03/2022 16:49:11 0.02,-136.88 0.59,-139.43 291.67 80
11 03/04/2022 16:40:03 0.02,-136.84 -0.05,-136.55 33.67 80
